[[{"header":{"parameterUnit":"m.s-1","parameterCategory":1,"la1":30.2991,"la2":30.254,"lo1":-89.0895,"lo2":-89.0444,"dy":0.0017,"dx":0.0017,"nx":28,"ny":28,"refTime":"2024-07-25T09:00:00:Z","depth":0,"parameterNumber":2,"parameterNumberName":"U-component_of_WINDS"},"data":[0,0,0,0,0,0,0,0,0,0,0,0,0,0,0,0,0,0,0,0,0,0,0,0,0,0,0,0,0,0,0,0,0,0,0,0,0,0,0,0,0,0,0,0,0,0,0,0,0,0,0,0,0,0,0,0,0,0,-0.8961,-0.8961,0,-0.8958,-0.8958,-0.8958,-0.8931,-0.893,-0.8929,-0.8929,-0.8926,-0.8926,-0.8927,0,0,0,0,0,0,0,0,0,0,0,0,0,-0.8944,-0.8944,-0.8961,-0.8961,-0.8961,-0.8958,-0.8958,-0.8958,-0.8931,-0.893,-0.8929,-0.8928,-0.8926,-0.8926,-0.8927,0,0,0,0,0,0,0,0,0,0,0,0,0,-0.8947,-0.8944,-0.8961,-0.8947,-0.8946,-0.8958,-0.8958,-0.8958,-0.8931,-0.893,-0.8929,-0.8928,-0.8925,-0.8926,-0.8927,-0.8953,0,0,-0.893,-0.893,0,0,0,0,0,0,0,0,-0.8947,-0.8948,-0.8949,-0.8948,-0.8947,-0.8944,-0.8951,-0.8956,-0.8931,-0.8937,-0.8929,-0.8927,-0.8933,-0.8933,-0.8934,-0.8953,-0.8952,-0.893,-0.893,-0.8931,-0.8931,0,0,0,0,0,0,0,-0.8947,-0.8948,-0.896,-0.8949,-0.8948,-0.8941,-0.894,-0.8952,-0.894,-0.8936,-0.8934,-0.8934,-0.8932,-0.8934,-0.8934,-0.8952,-0.893,-0.893,-0.8931,-0.8931,-0.8992,-0.8993,0,0,0,0,0,0,-0.8948,-0.8948,-0.896,-0.896,-0.8944,-0.8942,-0.8941,-0.8946,-0.894,-0.8938,-0.8935,-0.8933,-0.8933,-0.8933,-0.8934,-0.8964,-0.893,-0.8931,-0.8932,-0.8991,-0.8992,-0.8994,0,0,0,0,0,0,-0.8948,-0.895,-0.896,-0.8953,-0.8954,-0.8944,-0.8948,-0.8946,-0.8948,-0.8939,-0.8937,-0.8939,-0.8932,-0.8933,-0.8948,-0.8964,-0.8932,-0.8932,-0.899,-0.8992,-0.8993,-0.9024,0,0,0,0,0,0,-0.8948,-0.895,-0.8959,-0.8954,-0.8955,-0.8974,-0.8949,-0.8947,-0.895,-0.8947,-0.8943,-0.8941,-0.8931,-0.8947,-0.8949,-0.8964,-0.8933,-0.8988,-0.8991,-0.8993,-0.9022,-0.9027,-0.9031,0,0,0,0,0,-0.8947,-0.8968,-0.896,-0.8961,-0.8966,-0.8975,-0.8976,-0.8964,-0.8951,-0.896,-0.8955,-0.8941,-0.8962,-0.8949,-0.8951,-0.8966,-0.8987,-0.899,-0.8992,-0.902,-0.9026,-0.9031,0,0,0,0,0,0,-0.8975,-0.8967,-0.8958,-0.8977,-0.8977,-0.8971,-0.8982,-0.8971,-0.8975,-0.8972,-0.8957,-0.8957,-0.8975,-0.8972,-0.8958,-0.8991,-0.8972,-0.8975,-0.8992,-0.8998,-0.9002,-0.9003,-0.8934,0,0,0,0,0,-0.8984,-0.8992,-0.8984,-0.9002,-0.9003,-0.8993,-0.8996,-0.8987,-0.8987,-0.8987,-0.8982,-0.8982,-0.8989,-0.8993,-0.8999,-0.9021,-0.902,-0.9033,-0.9038,-0.9042,-0.9044,-0.9057,-0.9062,-0.9002,-0.9002,-0.9002,0,0,-0.9002,-0.8998,-0.9004,-0.9008,-0.9007,-0.9016,-0.8993,-0.9003,-0.901,-0.8988,-0.9003,-0.9,-0.8999,-0.9018,-0.9027,-0.9017,-0.9061,-0.9045,-0.9048,-0.9048,-0.906,-0.9066,-0.9071,-0.9004,-0.9003,-0.9003,0,0,-0.9038,-0.9036,-0.9051,-0.9051,-0.9049,-0.9043,-0.9047,-0.9042,-0.9039,-0.9053,-0.9038,-0.9045,-0.9057,-0.9057,-0.9059,-0.9097,-0.9084,-0.9099,-0.9123,-0.9135,-0.914,-0.9144,-0.9158,-0.9163,-0.9102,-0.9102,-0.9102,0,-0.906,-0.9073,-0.906,-0.9072,-0.9074,-0.9056,-0.9071,-0.9071,-0.9072,-0.9074,-0.9063,-0.9078,-0.9076,-0.9095,-0.9105,-0.9106,-0.911,-0.9099,-0.914,-0.9144,-0.9148,-0.9161,-0.9166,-0.9103,-0.9103,-0.9103,-0.9103,0,-0.91,-0.9109,-0.9122,-0.9123,-0.9127,-0.914,-0.913,-0.9136,-0.9127,-0.9122,-0.9137,-0.9134,-0.9139,-0.9143,-0.9134,-0.9162,-0.9156,-0.9143,-0.9123,-0.9156,-0.9168,-0.9173,-0.9106,-0.9105,-0.9105,-0.9104,0,0,-0.9153,-0.9148,-0.9153,-0.9154,-0.9152,-0.9159,-0.9172,-0.9176,-0.9182,-0.9183,-0.9194,-0.9204,-0.9193,-0.9195,-0.9186,-0.9197,-0.9227,-0.9182,-0.9182,-0.9191,-0.9258,-0.9268,-0.9273,-0.9219,-0.922,-0.9221,-0.9258,0,-0.9189,-0.921,-0.92,-0.9223,-0.9232,-0.9214,-0.9226,-0.9226,-0.9222,-0.9228,-0.9224,-0.9231,-0.9215,-0.9216,-0.9226,-0.9222,-0.9241,-0.9219,-0.9229,-0.923,-0.923,-0.928,-0.929,-0.9325,-0.9263,-0.9263,-0.9264,0,-0.9233,-0.9236,-0.926,-0.9257,-0.926,-0.9271,-0.9275,-0.9282,-0.9282,-0.9278,-0.928,-0.9269,-0.9282,-0.9263,-0.9281,-0.9266,-0.927,-0.9269,-0.927,-0.927,-0.9249,-0.9281,-0.9336,-0.9341,-0.9271,-0.9271,-0.927,0,-0.927,-0.928,-0.9296,-0.9297,-0.9294,-0.9302,-0.9301,-0.93,-0.9304,-0.9308,-0.931,-0.9315,-0.9318,-0.9322,-0.9313,-0.93,-0.9333,-0.9313,-0.933,-0.933,-0.9337,-0.9337,-0.9393,-0.934,-0.934,-0.934,-0.934,0,-0.931,-0.9325,-0.9313,-0.9323,-0.934,-0.9328,-0.9345,-0.9342,-0.9342,-0.9351,-0.9336,-0.9345,-0.9333,-0.9341,-0.9334,-0.935,-0.9351,-0.9349,-0.9347,-0.935,-0.935,-0.9352,-0.9349,-0.9341,-0.9341,-0.9341,-0.934,0,-0.9354,-0.9346,-0.9362,-0.9358,-0.9358,-0.937,-0.9367,-0.9376,-0.9371,-0.9383,-0.9385,-0.9377,-0.9386,-0.9377,-0.9385,-0.938,-0.9402,-0.9396,-0.9402,-0.94,-0.9418,-0.9417,-0.9477,-0.9485,-0.9427,-0.9428,-0.9428,0,-0.938,-0.9392,-0.9389,-0.9394,-0.9394,-0.9403,-0.9407,-0.9396,-0.9401,-0.9402,-0.9411,-0.9419,-0.9424,-0.9439,-0.9434,-0.944,-0.9435,-0.9455,-0.9435,-0.9439,-0.9435,-0.9434,-0.9436,-0.9459,-0.946,-0.9461,-0.9461,0,-0.9428,-0.9424,-0.943,-0.9435,-0.9441,-0.9444,-0.9447,-0.9452,-0.9441,-0.9447,-0.9456,-0.946,-0.9469,-0.9476,-0.9481,-0.948,-0.9469,-0.9467,-0.9472,-0.9475,-0.9478,-0.9477,-0.9413,-0.9466,-0.9466,-0.9465,-0.9465,-0.9465,-0.9464,-0.9473,-0.9473,-0.9481,-0.9482,-0.9485,-0.9493,-0.949,-0.9497,-0.9503,-0.9496,-0.9507,-0.9508,-0.9513,-0.9514,-0.9522,-0.9513,-0.952,-0.9521,-0.9523,-0.9526,-0.9477,-0.9523,-0.9523,-0.9523,-0.9523,-0.9523,0,-0.9511,-0.951,-0.9517,-0.9522,-0.9528,-0.9517,-0.9519,-0.9526,-0.9535,-0.9537,-0.9543,-0.9553,-0.9561,-0.9557,-0.9563,-0.9571,-0.9566,-0.9573,-0.9572,-0.9573,-0.9533,-0.9529,-0.9577,-0.9577,-0.9577,-0.9577,-0.9577,-0.9577,-0.9536,-0.9552,-0.9548,-0.9564,-0.9563,-0.9574,-0.9577,-0.9579,-0.958,-0.9593,-0.9599,-0.9597,-0.9596,-0.9603,-0.961,-0.9608,-0.9611,-0.9621,-0.9617,-0.9581,-0.9575,-0.957,-0.9566,-0.9621,-0.9621,-0.9656,-0.9656,-0.9657]},{"header":{"parameterUnit":"m.s-1","parameterCategory":1,"la1":30.2991,"la2":30.254,"lo1":-89.0895,"lo2":-89.0444,"dy":0.0017,"dx":0.0017,"nx":28,"ny":28,"refTime":"2024-07-25T09:00:00:Z","depth":0,"parameterNumber":3,"parameterNumberName":"V-component_of_WINDS"},"data":[0,0,0,0,0,0,0,0,0,0,0,0,0,0,0,0,0,0,0,0,0,0,0,0,0,0,0,0,0,0,0,0,0,0,0,0,0,0,0,0,0,0,0,0,0,0,0,0,0,0,0,0,0,0,0,0,0,0,0.0464,0.0463,0,0.0365,0.0364,0.0363,0.0265,0.0264,0.0262,0.0261,0.016,0.0159,0.0157,0,0,0,0,0,0,0,0,0,0,0,0,0,0.0569,0.0567,0.0464,0.0463,0.0462,0.0366,0.0364,0.0363,0.0265,0.0264,0.0262,0.0261,0.0161,0.0159,0.0157,0,0,0,0,0,0,0,0,0,0,0,0,0,0.0502,0.0567,0.0465,0.0402,0.0395,0.0366,0.0364,0.0362,0.0265,0.0264,0.0262,0.026,0.0161,0.0159,0.0157,0.0182,0,0,0.015,0.0149,0,0,0,0,0,0,0,0,0.0506,0.0498,0.0412,0.0406,0.0398,0.0325,0.0364,0.0302,0.0266,0.0315,0.0261,0.0259,0.0217,0.021,0.0196,0.0178,0.0173,0.015,0.0149,0.0148,0.0147,0,0,0,0,0,0,0,0.0511,0.0502,0.0425,0.0411,0.0403,0.0378,0.0367,0.0352,0.0278,0.031,0.0303,0.0292,0.0213,0.0198,0.0193,0.0172,0.015,0.0148,0.0147,0.0146,0.0169,0.0171,0,0,0,0,0,0,0.0525,0.0507,0.0428,0.0422,0.0448,0.0378,0.0365,0.0351,0.0278,0.0265,0.0294,0.0288,0.0203,0.0195,0.0189,0.0213,0.0148,0.0146,0.0145,0.0167,0.0169,0.0171,0,0,0,0,0,0,0.0527,0.0519,0.0432,0.0462,0.0449,0.0378,0.0363,0.035,0.0335,0.0266,0.0252,0.0293,0.0201,0.0192,0.0185,0.0208,0.0145,0.0143,0.0165,0.0168,0.017,0.0263,0,0,0,0,0,0,0.0531,0.052,0.0529,0.0463,0.0448,0.043,0.0365,0.0349,0.0331,0.0323,0.0261,0.0249,0.0199,0.0188,0.0182,0.0204,0.0141,0.0162,0.0166,0.0169,0.0257,0.0269,0.0278,0,0,0,0,0,0.0535,0.056,0.053,0.0521,0.0458,0.0432,0.0423,0.0365,0.0334,0.0342,0.0297,0.0251,0.0207,0.0188,0.0181,0.0202,0.0161,0.0165,0.0169,0.0253,0.0266,0.0278,0,0,0,0,0,0,0.0631,0.055,0.0516,0.052,0.0484,0.0415,0.0424,0.0381,0.0353,0.0346,0.0275,0.0262,0.0263,0.0232,0.0213,0.0223,0.0177,0.018,0.0243,0.0256,0.0266,0.0273,0.0139,0,0,0,0,0,0.0652,0.0638,0.0568,0.0578,0.0561,0.0496,0.0482,0.0441,0.04,0.0384,0.0339,0.0301,0.0278,0.0265,0.0241,0.0252,0.0237,0.0263,0.0274,0.0283,0.0286,0.0289,0.03,0.0186,0.0186,0.0186,0,0,0.0697,0.0651,0.0646,0.0596,0.0563,0.0549,0.0484,0.0472,0.0461,0.0382,0.0372,0.0338,0.0291,0.0293,0.0292,0.0267,0.0314,0.0288,0.0296,0.0294,0.0295,0.0306,0.0316,0.0189,0.0188,0.0188,0,0,0.0771,0.0735,0.0739,0.0707,0.0657,0.0613,0.0614,0.0552,0.0526,0.0515,0.0455,0.0441,0.0404,0.0373,0.0352,0.0414,0.037,0.0408,0.0463,0.0467,0.0476,0.0483,0.0505,0.0514,0.0412,0.0412,0.0412,0,0.0833,0.081,0.0747,0.0739,0.0718,0.0646,0.0649,0.0621,0.0566,0.0554,0.0527,0.0478,0.0442,0.0435,0.0451,0.0436,0.0435,0.0415,0.048,0.0487,0.0493,0.0513,0.0521,0.0417,0.0417,0.0416,0.0416,0,0.0888,0.0873,0.0882,0.0831,0.0811,0.0809,0.0746,0.0734,0.0694,0.0653,0.0643,0.0596,0.0561,0.0556,0.0517,0.0544,0.053,0.0493,0.0445,0.051,0.0527,0.0535,0.0424,0.0422,0.0421,0.042,0,0,0.102,0.0933,0.0938,0.0913,0.0852,0.0839,0.0834,0.0799,0.079,0.0754,0.0748,0.0718,0.0682,0.0659,0.0616,0.0619,0.0671,0.0581,0.0578,0.0599,0.0698,0.0727,0.0737,0.0641,0.0642,0.0643,0.0702,0,0.1084,0.1069,0.1012,0.1015,0.1,0.0931,0.0926,0.0888,0.085,0.0832,0.0789,0.0769,0.0724,0.0709,0.0709,0.0665,0.069,0.066,0.0634,0.0634,0.0649,0.0746,0.0776,0.0834,0.0708,0.0709,0.071,0,0.1156,0.1125,0.1126,0.1065,0.1057,0.1054,0.1017,0.1,0.0956,0.0928,0.0902,0.0853,0.0843,0.0799,0.0784,0.0765,0.0751,0.0728,0.0729,0.0724,0.0676,0.0744,0.0851,0.086,0.072,0.0719,0.0719,0,0.1252,0.121,0.1206,0.1187,0.1116,0.1115,0.1085,0.1039,0.1021,0.0989,0.0977,0.0944,0.0927,0.0902,0.0846,0.0819,0.0838,0.0789,0.0814,0.0816,0.0821,0.0822,0.0928,0.0813,0.0813,0.0813,0.0812,0,0.133,0.1333,0.1248,0.1245,0.1247,0.1181,0.1184,0.1148,0.1108,0.1096,0.1034,0.1025,0.0951,0.0934,0.0889,0.0884,0.0876,0.0853,0.0842,0.0859,0.0862,0.0849,0.0844,0.0815,0.0814,0.0814,0.0813,0,0.1438,0.138,0.1371,0.1304,0.1287,0.1292,0.1234,0.1229,0.1187,0.1173,0.1166,0.11,0.1076,0.1017,0.0978,0.0948,0.0954,0.0933,0.0969,0.0962,0.099,0.0989,0.1091,0.1101,0.0981,0.0982,0.0983,0,0.1491,0.1492,0.1425,0.1413,0.1386,0.1367,0.1349,0.1284,0.1267,0.1217,0.1217,0.1188,0.1161,0.1126,0.1074,0.1044,0.1021,0.1059,0.1016,0.1033,0.1021,0.1022,0.1022,0.1069,0.1071,0.1072,0.1073,0,0.1591,0.1562,0.1538,0.1504,0.1484,0.1454,0.1421,0.1415,0.1342,0.1326,0.1301,0.128,0.1239,0.1211,0.1173,0.1142,0.1096,0.1087,0.1091,0.1109,0.113,0.1119,0.0995,0.1085,0.1084,0.1083,0.1082,0.1082,0.1672,0.167,0.1623,0.1598,0.1566,0.1536,0.1527,0.1484,0.1461,0.1423,0.1386,0.1365,0.1319,0.1263,0.1235,0.1217,0.1193,0.1199,0.1201,0.1203,0.1211,0.1133,0.121,0.1209,0.1209,0.1208,0.1208,0,0.1769,0.1735,0.1713,0.1668,0.1649,0.1606,0.1567,0.1554,0.1535,0.1497,0.1472,0.1442,0.1415,0.1361,0.1328,0.1324,0.1302,0.1318,0.1317,0.1311,0.1234,0.1234,0.1336,0.1336,0.1336,0.1336,0.1336,0.1336,0.1817,0.1811,0.1777,0.1754,0.1719,0.1697,0.1678,0.1651,0.162,0.159,0.1566,0.1531,0.1486,0.145,0.1423,0.1407,0.1398,0.1421,0.1399,0.1329,0.1317,0.1305,0.1304,0.142,0.142,0.1477,0.1478,0.1478]}]]